Regional Weather Roundup
Issued by NWS

Home | Current Version | Previous Version | Graphics & Text | Print | Product List | Glossary On
Versions: 1 2 3 4 5 6 7 8 9 10 11 12 13 14 15 16 17 18 19 20 21 22 23 24 25 26 27 28 29 30 31 32 33 34 35 36 37 38 39 40 41 42 43 44 45 46 47 48 49 50
000
ASUS45 KBOU 241810
RWRCO

WEATHER ROUNDUP FOR COLORADO
NATIONAL WEATHER SERVICE PUEBLO CO
1200 PM MDT TUE APR 24 2018

NOTE: "FAIR" INDICATES FEW OR NO CLOUDS BELOW 12000 FEET WITH NO
SIGNIFICANT WEATHER AND/OR OBSTRUCTIONS TO VISIBILITY.

COZ001>005-013-030-031-241900-
...NORTHWEST COLORADO...

CITY           SKY/WX    TMP DP  RH WIND       PRES   REMARKS
CRAIG          MOSUNNY   47  31  53 VRB5      30.34F
HAYDEN         MOSUNNY   41  31  67 W8        30.35F
MEEKER         MOSUNNY   50  30  46 NE9       30.32F
RABBIT EARS PA NOT AVBL
STEAMBOAT SPGS PTSUNNY   42  31  66 S6        30.32S
WALDEN         PTSUNNY   37  19  48 NW17G23   30.36S
$$

COZ006>008-011-241900-
...WEST CENTRAL VALLEYS...

CITY           SKY/WX    TMP DP  RH WIND       PRES   REMARKS
GRAND JUNCTION MOSUNNY   63  32  31 NW3       30.18F
MONTROSE       PTSUNNY   61  32  33 NW12      30.18F
EAGLE          CLOUDY    59  30  33 W16G29    30.20F
RIFLE          PTSUNNY   56  33  42 W16       30.23F
DELTA          NOT AVBL
NUCLA          FAIR      68  27  21 W3        30.20F
$$

COZ017>023-064>068-241900-
...SOUTHWEST COLORADO...

CITY           SKY/WX    TMP DP  RH WIND       PRES   REMARKS
DURANGO        MOSUNNY   71  22  15 NW24G32   30.15F
CORTEZ         SUNNY     71  25  17 SW9       30.15F
PAGOSA SPRINGS FAIR      65  12  12 SW16G23   30.20F
TELLURIDE      CLOUDY    53  24  32 W8        30.31F
WOLF CREEK PAS CLOUDY    41  19  42 S14G21    30.45S
$$

COZ009-010-012-014-032>034-037-058>063-241900-
...CENTRAL COLORADO...

CITY           SKY/WX    TMP DP  RH WIND       PRES   REMARKS
ASPEN          PTSUNNY   53  30  41 VRB5      30.21F
BUENA VISTA    PTSUNNY   51  32  47 SE13G18   30.24F
COPPER MTN     NOT AVBL
BERTHOUD PASS  CLOUDY    25  14  63 W16       30.35F WCI  12
COTTONWOOD PAS PTSUNNY   46  32  57 SW16G25   30.30F
GUNNISON       PTSUNNY   55  32  41 NE9       30.23F
KREMMLING      CLOUDY    45  30  57 N13G21    30.29S
LEADVILLE      LGT RAIN  44  24  45 MISG      30.27F
MONARCH PASS   PTSUNNY   37  23  56 SW28G41   30.47F
SALIDA         FAIR      53  37  53 SE22G31   30.31F
SUNLIGHT       PTSUNNY   37  28  70 SW9G23    30.37S
WILKERSON PASS LGT SNOW  32  30  93 S5        30.37F WCI  27
$$

COZ069>075-241900-
...SAN LUIS VALLEY/SANGRE DE CRISTO MOUNTAINS...

CITY           SKY/WX    TMP DP  RH WIND       PRES   REMARKS
ALAMOSA        SUNNY     59  30  33 VRB5      30.21F
DEL NORTE      FAIR      60  28  29 SE10G17   30.22F
LA VETA PASS   SNOW      32  32 100 N17G25    30.47S VSB 1/4 WCI  21
SAGUACHE       NOT AVBL
$$

COZ035-036-038>040-241900-
...NORTHERN COLORADO FRONT RANGE...

CITY           SKY/WX    TMP DP  RH WIND       PRES   REMARKS
DENVER INTL AP CLOUDY    38  30  73 N16       30.42F
DMNS CITY PARK NOT AVBL
AURORA         NOT AVBL
FRONT RANGE AP CLOUDY    37  32  81 N15       30.43S
ERIE MUNI ARPT LGT SNOW  37  34  90 N6        30.50S
BOULDER MUN AP LGT SNOW  34  34 100 NE5       30.44S WCI  30
CENTENNIAL     CLOUDY    34  30  85 N10       30.42S WCI  26
BROOMFIELD     CLOUDY    36  34  93 NE5       30.43F FOG
LOVELAND       LGT RAIN  40  35  83 N15G22    30.44F
LONGMONT       FLURRIES  39  36  89 NE6       30.47S
$$

COZ041-046-047-076>085-087-088-241900-
...PIKES PEAK/PALMER DIVIDE AND SOUTHERN FOOTHILLS...

CITY           SKY/WX    TMP DP  RH WIND       PRES   REMARKS
COLO. SPRINGS  CLOUDY    37  27  67 N23       30.37S
A. F. ACADEMY  NOT AVBL
SCHRIEVER AFB  NOT AVBL
CHEYENNE MTN   NOT AVBL
ELLICOTT         N/A    N/A N/A N/A N20G32    30.35R
FALCON         CLOUDY    32  26  78 N21G28    30.38R WCI  20
FORT CARSON    CLOUDY    38  26  63 N23G29    30.35S
LIMON          CLOUDY    35  32  88 N20G32    30.39S WCI  24
MONUMENT HILL  CLOUDY    28  28 100 N14       30.40F WCI  17
CANON CITY     CLOUDY    45  32  61 SE17G24   30.35S
WALSENBURG     CLOUDY    39  36  87 NE14      30.38S
TRINIDAD       CLOUDY    39  36  89 NE10      30.37S
$$

COZ042>045-048>051-090-091-241900-
...NORTHEAST COLORADO...

CITY           SKY/WX    TMP DP  RH WIND       PRES   REMARKS
GREELEY ARPT   PTSUNNY   43  30  60 N20       30.45S
AKRON          CLOUDY    38  32  79 N24G33    30.39F
BURLINGTON     CLOUDY    36  35  96 NW16G23   30.37S
WRAY           CLOUDY    41  36  81 N20G28    30.39S
YUMA           NOT AVBL
STERLING       NOT AVBL
HOLYOKE        CLOUDY    43  36  75 N26G37    30.39S
FORT MORGAN    CLOUDY    42  28  58 N20       30.43S
$$

COZ086-089-092>099-241900-
...SOUTHEAST COLORADO...

CITY           SKY/WX    TMP DP  RH WIND       PRES   REMARKS
PUEBLO         CLOUDY    45  30  55 NE18G25   30.38F
LA JUNTA       CLOUDY    42  33  70 N16G24    30.40R
LAMAR          CLOUDY    41  32  70 N18G32    30.35S
SPRINGFIELD      N/A     40  34  79 N25       30.32S
$$




USA.gov is the U.S. government's official web portal to all federal, state and local government web resources and services.